Regional Weather Roundup
Issued by NWS

Home | Current Version | Previous Version | Graphics & Text | Print | Product List | Glossary On
Versions: 1 2 3 4 5 6 7 8 9 10 11 12 13 14 15 16 17 18 19 20 21 22 23 24 25 26 27 28 29 30 31 32 33 34 35 36 37 38 39 40 41 42 43 44 45 46 47 48 49 50
000
ASUS43 KMPX 251601
RWRMN
WEATHER ROUNDUP FOR MINNESOTA
NATIONAL WEATHER SERVICE TWIN CITIES/CHANHASSEN MN
1100 AM CDT SUN JUN 25 2017


NOTE: "FAIR" INDICATES FEW OR NO CLOUDS BELOW 12,000 FEET WITH NO
SIGNIFICANT WEATHER AND/OR OBSTRUCTIONS TO VISIBILITY. N/A MEANS
CURRENT SKY AND/OR WEATHER CONDITIONS ARE NOT AVAILABLE.

MNZ060>063-068>070-251700-
   Twin Cities Metro

CITY           SKY/WX    TMP DP  RH WIND       PRES   REMARKS
TWIN CITIES    CLOUDY    59  49  69 NW17      30.15S
ST PAUL        CLOUDY    57  51  80 NW14G25   30.15R
CRYSTAL        CLOUDY    58  46  64 NW20G26   30.13S
BLAINE         CLOUDY    59  50  72 NW16      30.13S
LAKEVILLE      CLOUDY    54  52  94 NW12G17   30.16R
EDEN PRAIRIE   CLOUDY    60  49  66 NW16G24   30.15R
SOUTH ST PAUL  CLOUDY    58  49  73 NW12G22   30.14S
LAKE ELMO      CLOUDY    55  52  88 W9        30.14S
$$
MNZ001>005-007-008-013>017-022>024-027-028-251700-
   Northwest Minnesota

CITY           SKY/WX    TMP DP  RH WIND       PRES   REMARKS
BEMIDJI        CLOUDY    55  43  63 NW16G26   30.17S
HALLOCK        MOSUNNY   57  45  62 N12       30.22S
ROSEAU         RAIN      48  43  81 NW13      30.19R
WARROAD        MOSUNNY   55  48  76 NW8G16    30.17F
CROOKSTON      MOSUNNY   57  45  62 NW16      30.23F
FOSSTON        MOSUNNY   55  45  67 NW13G23   30.21S
DETROIT LAKES  MOSUNNY   57  43  58 N15G25    30.23S
MOORHEAD       MOSUNNY   61  43  51 NW10      30.24F
PARK RAPIDS    PTSUNNY   57  38  48 NW20      30.18S
MAHNOMEN       FAIR      57  43  57 NW14      30.21F
$$
MNZ006-009>011-018-025>026-251700-
   North Central Minnesota

CITY           SKY/WX    TMP DP  RH WIND       PRES   REMARKS
BAUDETTE       MOSUNNY   55  47  74 N6        30.16R
FLAG ISLAND    LGT RAIN  54  45  71 NW6       30.15S
INTL FALLS     CLOUDY    53  45  74 N12       30.12S
WASKISH        LGT RAIN  55  46  71 N8        30.16S
BIG FORK       PTSUNNY   54  46  76 NW8       30.14R
LONGVILLE      CLOUDY    57  46  67 NW12G21   30.15S
GRAND RAPIDS   CLOUDY    54  45  71 NW14G25   30.14S
CRANE LAKE     LGT RAIN  48  48 100 NW5       30.10S
ORR            LGT RAIN  48  45  87 NW7       30.09R
COOK           RAIN      48  46  93 NW6       30.10S
WALKER         PTSUNNY   57  45  64 NW12G20   30.17S
$$
MNZ012-019>021-037-251700-
   Northeast Minnesota

CITY           SKY/WX    TMP DP  RH WIND       PRES   REMARKS
DULUTH         LGT RAIN  51  50  96 NW18G28   30.05R
ELY            LGT RAIN  52  52 100 N3        30.04S
HIBBING        RAIN      48  47  96 NW12      30.10R
EVELETH        RAIN      50  46  84 NW13G25   30.09R
DULUTH HARBOR  HVY RAIN  55  52  88 NW18G31   30.05R
TWO HARBORS    CLOUDY    64  54  68 NW7       30.00F
GRAND MARAIS     N/A     51  50  96 NE3       30.02R
G MARAIS ARPRT DRIZZLE   54  48  82 CALM      30.03S
$$
MNZ029>031-032-039>041-046>048-054>057-064-251700-
   West Central Minnesota

CITY           SKY/WX    TMP DP  RH WIND       PRES   REMARKS
FERGUS FALLS   SUNNY     59  43  55 NW16G22   30.22S
WHEATON        SUNNY     61  39  44 NW15G22   30.27S
MORRIS         SUNNY     63  43  48 NW16G26   30.23S
ALEXANDRIA     MOSUNNY   59  42  53 N18G29    30.22S
ELBOW LAKE     FAIR      57  42  57 NW17      30.24S
WADENA         PTSUNNY   57  43  58 NW17G23   30.19S
GLENWOOD       SUNNY     61  43  51 NW17G24   30.22R
APPLETON       SUNNY     63  39  42 NW16G25   30.24S
BENSON         SUNNY     63  41  45 N16G22    30.24S
ORTONVILLE     MOSUNNY   61  41  48 NW16G22   30.26S
MADISON        MOSUNNY   64  45  48 NW15      30.25S
WILLMAR        FAIR      63  45  51 N20G28    30.23S
$$
MNZ033>034-036-042>043-049>051-058-059-251700-
   Central Minnesota

CITY           SKY/WX    TMP DP  RH WIND       PRES   REMARKS
ST CLOUD       PTSUNNY   59  45  59 N15G26    30.16S
SAUK CENTRE    PTSUNNY   60  43  53 NW22      30.20R
PAYNESVILLE    PTSUNNY   59  42  54 NW12G22   30.20S
AITKIN         CLOUDY    54  46  76 NW13G22   30.12R
PINE RIVER     PTSUNNY   57  46  67 NW13G21   30.19S
BRAINERD       MOSUNNY   58  43  57 N23       30.16S
STAPLES        PTSUNNY   57  41  54 NW13G21   30.18S
LONG PRAIRIE   PTSUNNY   59  43  55 W20       30.19S
LITTLE FALLS   PTSUNNY   59  41  51 NW9G22    30.17R
LITCHFIELD     PTSUNNY   61  46  59 NW17G28   30.19S
BUFFALO        PTSUNNY   58  46  63 NW10G23   30.17S
MAPLE LAKE     PTSUNNY   61  49  65 NW14G20   30.18S
HUTCHINSON     PTSUNNY   61  47  60 NW17G26   30.20R
$$
MNZ037-044-045-052-053-251700-
   East Central Minnesota

CITY           SKY/WX    TMP DP  RH WIND       PRES   REMARKS
PRINCETON      PTSUNNY   61  48  63 NW17G24   30.15S
MORA           CLOUDY    55  50  82 NW15G26   30.13S
CAMBRIDGE      CLOUDY    59  46  63 W14G21    30.12R
RUSH CITY      LGT RAIN  57  52  82 NW10      30.11S
MOOSE LAKE     CLOUDY    54  50  87 NW10G21   30.08R
HINCKLEY       CLOUDY    59  52  77 NW16G23   30.11R
CLOQUET        LGT RAIN  52  46  82 NW14G25   30.08R
MCGREGOR       CLOUDY    55  48  76 NW9G18    30.12S
$$
MNZ071>073-080-081-089-090-097-098-251700-
   Southwest Minnesota

CITY           SKY/WX    TMP DP  RH WIND       PRES   REMARKS
MONTEVIDEO     SUNNY     63  43  48 N18G24    30.24S
GRANITE FALLS  SUNNY     63  42  45 NW18      30.26R
CANBY          MOSUNNY   64  44  49 W16       30.27S
MARSHALL       PTSUNNY   61  43  51 NW21G28   30.25S
REDWOOD FALLS  SUNNY     62  40  44 NW16G26   30.22F
OLIVIA         MOSUNNY   61  43  51 NW18G28   30.21S
PIPESTONE      MOSUNNY   61  43  51 N13G22    30.27F
WINDOM         SUNNY     61  43  51 NW18G25   30.25R
WORTHINGTON    PTSUNNY   60  43  53 NW17G24   30.27S
JACKSON        SUNNY     61  41  48 NW20G26   30.25S
TRACY          MOSUNNY   62  44  53 NW20G25   30.26S
SLAYTON        MOSUNNY   58  42  54 W16G24    30.27S
$$
MNZ065>067-074>077-082>085-091>093-251700-
   South Central Minnesota

CITY           SKY/WX    TMP DP  RH WIND       PRES   REMARKS
MANKATO        CLOUDY    60  46  59 NW16G28   30.19F
NEW ULM        MOSUNNY   61  43  51 NW21G31   30.21R
ST JAMES       SUNNY     63  43  48 NW20G25   30.23R
FAIRMONT       SUNNY     61  42  49 NW17G33   30.23R
GLENCOE        PTSUNNY   61  50  66 NW16G24   30.17S
FARIBAULT      CLOUDY    57  48  72 W16       30.17S
OWATONNA       CLOUDY    57  48  72 W17G24    30.18S
WASECA         CLOUDY    59  46  63 W17G25    30.20S
ALBERT LEA     CLOUDY    57  46  67 NW12      30.19S
$$
MNZ078>079-086>088-094>096-251700-
   Southeast Minnesota

CITY           SKY/WX    TMP DP  RH WIND       PRES   REMARKS
ROCHESTER      CLOUDY    54  50  86 W14       30.17R
RED WING       CLOUDY    57  52  82 NW9       30.13R
STANTON        CLOUDY    56  50  79 W14       30.15S
DODGE CENTER   CLOUDY    54  48  82 W15G22    30.17S
WINONA         CLOUDY    59  50  72 W12       30.14R
AUSTIN         CLOUDY    54  46  76 NW13G21   30.18S
PRESTON        CLOUDY    53  49  86 W15G22    30.17R FOG
$$
ABBREVIATIONS USED IN REMARKS
   TC - TEMPERATURES IN CELSIUS
  WCI - WIND CHILL INDEX
   HX - HEAT INDEX
  VSB - VISIBILITY
$$




USA.gov is the U.S. government's official web portal to all federal, state and local government web resources and services.